Time,TemperatureF,DewpointF,PressureIn,WindDirection,WindDirectionDegrees,WindSpeedMPH,WindSpeedGustMPH,Humidity,HourlyPrecipIn,Conditions,Clouds,dailyrainin,SolarRadiationWatts/m^2,SoftwareType,DateUTC
2013-03-02 00:02:00,52.0,37.0,-100.00,NW,321,8.0,-999.0,57,0.00,,,-99.99,0.000000,,2013-03-02 05:02:00,
2013-03-02 00:12:00,52.0,38.0,-100.00,NW,319,6.0,-999.0,59,0.00,,,-99.99,0.000000,,2013-03-02 05:12:00,
2013-03-02 00:22:00,52.0,38.0,-100.00,NW,319,6.0,-999.0,59,0.00,,,-99.99,0.000000,,2013-03-02 05:22:00,
2013-03-02 00:32:00,52.0,38.0,-100.00,NW,319,8.0,-999.0,60,0.00,,,-99.99,0.000000,,2013-03-02 05:32:00,
2013-03-02 00:42:00,51.0,38.0,-100.00,NW,317,8.0,-999.0,60,0.00,,,-99.99,0.000000,,2013-03-02 05:42:00,
2013-03-02 00:52:00,51.0,38.0,-100.00,NW,317,8.0,-999.0,60,0.00,,,-99.99,0.000000,,2013-03-02 05:52:00,
2013-03-02 01:01:00,51.0,38.0,-100.00,NW,315,8.0,-999.0,60,0.00,,,-99.99,0.000000,,2013-03-02 06:01:00,
2013-03-02 01:11:00,51.0,37.0,-100.00,NW,311,8.0,-999.0,58,0.00,,,-99.99,0.000000,,2013-03-02 06:11:00,
2013-03-02 01:21:00,51.0,37.0,-100.00,NW,311,8.0,-999.0,58,0.00,,,-99.99,0.000000,,2013-03-02 06:21:00,
2013-03-02 01:32:00,51.0,36.0,-100.00,NW,308,8.0,-999.0,57,0.00,,,-99.99,0.000000,,2013-03-02 06:32:00,
2013-03-02 01:42:00,50.0,36.0,-100.00,NW,311,9.0,-999.0,58,0.00,,,-99.99,0.000000,,2013-03-02 06:42:00,
2013-03-02 01:52:00,50.0,36.0,-100.00,NW,311,9.0,-999.0,58,0.00,,,-99.99,0.000000,,2013-03-02 06:52:00,
2013-03-02 02:01:00,50.0,36.0,-100.00,NW,306,10.0,-999.0,58,0.00,,,-99.99,0.000000,,2013-03-02 07:01:00,
2013-03-02 02:11:00,49.0,36.0,-100.00,NW,306,10.0,-999.0,59,0.00,,,-99.99,0.000000,,2013-03-02 07:11:00,
2013-03-02 02:21:00,49.0,36.0,-100.00,NW,306,10.0,-999.0,59,0.00,,,-99.99,0.000000,,2013-03-02 07:21:00,
2013-03-02 02:32:00,49.0,36.0,-100.00,NW,306,10.0,-999.0,59,0.00,,,-99.99,0.000000,,2013-03-02 07:32:00,
2013-03-02 02:42:00,49.0,36.0,-100.00,NW,306,9.0,-999.0,59,0.00,,,-99.99,0.000000,,2013-03-02 07:42:00,
2013-03-02 02:52:00,49.0,36.0,-100.00,NW,306,9.0,-999.0,59,0.00,,,-99.99,0.000000,,2013-03-02 07:52:00,
2013-03-02 03:01:00,49.0,36.0,-100.00,NW,304,9.0,-999.0,59,0.00,,,-99.99,0.000000,,2013-03-02 08:01:00,
2013-03-02 03:11:00,49.0,35.0,-100.00,NW,306,9.0,-999.0,58,0.00,,,-99.99,0.000000,,2013-03-02 08:11:00,
2013-03-02 03:22:00,49.0,35.0,-100.00,NW,306,9.0,-999.0,58,0.00,,,-99.99,0.000000,,2013-03-02 08:22:00,
2013-03-02 03:32:00,49.0,35.0,-100.00,NW,307,9.0,-999.0,58,0.00,,,-99.99,0.000000,,2013-03-02 08:32:00,
2013-03-02 03:42:00,49.0,35.0,-100.00,NW,306,8.0,-999.0,58,0.00,,,-99.99,0.000000,,2013-03-02 08:42:00,
2013-03-02 03:52:00,49.0,35.0,-100.00,NW,306,8.0,-999.0,58,0.00,,,-99.99,0.000000,,2013-03-02 08:52:00,
2013-03-02 04:02:00,49.0,35.0,-100.00,NW,309,7.0,-999.0,58,0.00,,,-99.99,0.000000,,2013-03-02 09:02:00,
2013-03-02 04:11:00,49.0,35.0,-100.00,NW,306,7.0,-999.0,58,0.00,,,-99.99,0.000000,,2013-03-02 09:11:00,
2013-03-02 04:21:00,49.0,35.0,-100.00,NW,306,7.0,-999.0,58,0.00,,,-99.99,0.000000,,2013-03-02 09:21:00,
2013-03-02 04:32:00,49.0,35.0,-100.00,NW,305,7.0,-999.0,59,0.00,,,-99.99,0.000000,,2013-03-02 09:32:00,
2013-03-02 04:42:00,49.0,35.0,-100.00,NW,307,7.0,-999.0,59,0.00,,,-99.99,0.000000,,2013-03-02 09:42:00,
2013-03-02 04:52:00,49.0,35.0,-100.00,NW,307,7.0,-999.0,59,0.00,,,-99.99,0.000000,,2013-03-02 09:52:00,
2013-03-02 05:01:00,48.0,35.0,-100.00,WNW,302,6.0,-999.0,60,0.00,,,-99.99,0.000000,,2013-03-02 10:01:00,
2013-03-02 05:16:00,48.0,35.0,-100.00,WNW,302,7.0,-999.0,61,0.00,,,-99.99,0.000000,,2013-03-02 10:16:00,
2013-03-02 05:22:00,48.0,35.0,-100.00,WNW,302,7.0,-999.0,61,0.00,,,-99.99,0.000000,,2013-03-02 10:22:00,
2013-03-02 05:32:00,47.0,35.0,-100.00,NW,313,6.0,-999.0,61,0.00,,,-99.99,0.000000,,2013-03-02 10:32:00,
2013-03-02 05:43:00,46.0,34.0,-100.00,NNW,342,4.0,-999.0,63,0.00,,,-99.99,0.000000,,2013-03-02 10:43:00,
2013-03-02 05:52:00,46.0,34.0,-100.00,NNW,342,4.0,-999.0,63,0.00,,,-99.99,0.000000,,2013-03-02 10:52:00,
2013-03-02 06:01:00,45.0,34.0,-100.00,NNW,348,4.0,-999.0,66,0.00,,,-99.99,0.000000,,2013-03-02 11:01:00,
2013-03-02 06:11:00,44.0,34.0,-100.00,North,353,3.0,-999.0,67,0.00,,,-99.99,0.000000,,2013-03-02 11:11:00,
2013-03-02 06:21:00,44.0,34.0,-100.00,North,353,3.0,-999.0,67,0.00,,,-99.99,0.000000,,2013-03-02 11:21:00,
2013-03-02 06:32:00,44.0,34.0,-100.00,NNW,343,2.0,-999.0,68,0.00,,,-99.99,0.000000,,2013-03-02 11:32:00,
2013-03-02 06:42:00,44.0,34.0,-100.00,NNW,339,4.0,-999.0,68,0.00,,,-99.99,0.000000,,2013-03-02 11:42:00,
2013-03-02 06:52:00,44.0,34.0,-100.00,NNW,339,4.0,-999.0,68,0.00,,,-99.99,0.000000,,2013-03-02 11:52:00,
2013-03-02 07:02:00,44.0,34.0,-100.00,NNW,344,5.0,-999.0,68,0.00,,,-99.99,0.400000,,2013-03-02 12:02:00,
2013-03-02 07:11:00,44.0,34.0,-100.00,NNW,348,6.0,-999.0,67,0.00,,,-99.99,4.800000,,2013-03-02 12:11:00,
2013-03-02 07:21:00,44.0,34.0,-100.00,NNW,348,6.0,-999.0,67,0.00,,,-99.99,4.800000,,2013-03-02 12:21:00,
2013-03-02 07:33:00,46.0,34.0,-100.00,NNW,345,5.0,-999.0,64,0.00,,,-99.99,25.100000,,2013-03-02 12:33:00,
2013-03-02 07:43:00,47.0,34.0,-100.00,NNW,347,5.0,-999.0,60,0.00,,,-99.99,53.900002,,2013-03-02 12:43:00,
2013-03-02 07:53:00,47.0,34.0,-100.00,NNW,347,5.0,-999.0,60,0.00,,,-99.99,53.900002,,2013-03-02 12:53:00,
2013-03-02 08:01:00,48.0,34.0,-100.00,NNW,348,5.0,-999.0,58,0.00,,,-99.99,110.599998,,2013-03-02 13:01:00,
2013-03-02 08:11:00,49.0,34.0,-100.00,North,354,6.0,-999.0,55,0.00,,,-99.99,115.099998,,2013-03-02 13:11:00,
2013-03-02 08:22:00,49.0,34.0,-100.00,North,354,6.0,-999.0,55,0.00,,,-99.99,115.099998,,2013-03-02 13:22:00,
2013-03-02 08:32:00,48.0,33.0,-100.00,North,353,5.0,-999.0,55,0.00,,,-99.99,77.099998,,2013-03-02 13:32:00,
2013-03-02 08:42:00,49.0,33.0,-100.00,NNW,348,5.0,-999.0,54,0.00,,,-99.99,86.800003,,2013-03-02 13:42:00,
2013-03-02 08:52:00,49.0,33.0,-100.00,NNW,348,5.0,-999.0,54,0.00,,,-99.99,86.800003,,2013-03-02 13:52:00,
2013-03-02 09:01:00,49.0,34.0,-100.00,NW,323,4.0,-999.0,54,0.00,,,-99.99,205.500000,,2013-03-02 14:01:00,
2013-03-02 09:11:00,50.0,33.0,-100.00,NW,326,5.0,-999.0,51,0.00,,,-99.99,202.600006,,2013-03-02 14:11:00,
2013-03-02 09:22:00,50.0,33.0,-100.00,NW,326,5.0,-999.0,51,0.00,,,-99.99,202.600006,,2013-03-02 14:22:00,
2013-03-02 09:32:00,51.0,33.0,-100.00,NW,323,7.0,-999.0,50,0.00,,,-99.99,250.000000,,2013-03-02 14:32:00,
2013-03-02 09:42:00,52.0,32.0,-100.00,NW,322,9.0,-999.0,47,0.00,,,-99.99,332.600006,,2013-03-02 14:42:00,
2013-03-02 09:52:00,52.0,32.0,-100.00,NW,322,9.0,-999.0,47,0.00,,,-99.99,332.600006,,2013-03-02 14:52:00,
2013-03-02 10:02:00,52.0,33.0,-100.00,NW,313,7.0,-999.0,49,0.00,,,-99.99,275.200012,,2013-03-02 15:02:00,
2013-03-02 10:11:00,51.0,34.0,-100.00,NW,305,7.0,-999.0,51,0.00,,,-99.99,298.500000,,2013-03-02 15:11:00,
2013-03-02 10:21:00,51.0,34.0,-100.00,NW,305,7.0,-999.0,51,0.00,,,-99.99,298.500000,,2013-03-02 15:21:00,
2013-03-02 10:32:00,53.0,35.0,-100.00,WNW,286,9.0,-999.0,50,0.00,,,-99.99,589.000000,,2013-03-02 15:32:00,
2013-03-02 10:42:00,52.0,34.0,-100.00,WNW,288,10.0,-999.0,49,0.00,,,-99.99,369.399994,,2013-03-02 15:42:00,
2013-03-02 10:52:00,52.0,34.0,-100.00,WNW,288,10.0,-999.0,49,0.00,,,-99.99,369.399994,,2013-03-02 15:52:00,
2013-03-02 11:02:00,53.0,36.0,-100.00,WNW,289,12.0,-999.0,51,0.00,,,-99.99,527.500000,,2013-03-02 16:02:00,
2013-03-02 11:11:00,54.0,37.0,-100.00,WNW,288,15.0,-999.0,51,0.00,,,-99.99,687.099976,,2013-03-02 16:11:00,
2013-03-02 11:21:00,54.0,37.0,-100.00,WNW,288,15.0,-999.0,51,0.00,,,-99.99,687.099976,,2013-03-02 16:21:00,
2013-03-02 11:32:00,55.0,36.0,-100.00,WNW,289,14.0,-999.0,49,0.00,,,-99.99,718.000000,,2013-03-02 16:32:00,
2013-03-02 11:42:00,55.0,36.0,-100.00,WNW,287,15.0,-999.0,48,0.00,,,-99.99,727.000000,,2013-03-02 16:42:00,
2013-03-02 11:52:00,55.0,36.0,-100.00,WNW,287,15.0,-999.0,48,0.00,,,-99.99,727.000000,,2013-03-02 16:52:00,
2013-03-02 12:01:00,56.0,36.0,-100.00,WNW,284,13.0,-999.0,47,0.00,,,-99.99,680.200012,,2013-03-02 17:01:00,
2013-03-02 12:11:00,56.0,35.0,-100.00,West,276,15.0,-999.0,45,0.00,,,-99.99,650.000000,,2013-03-02 17:11:00,
2013-03-02 12:21:00,56.0,35.0,-100.00,West,276,15.0,-999.0,45,0.00,,,-99.99,650.000000,,2013-03-02 17:21:00,
2013-03-02 12:32:00,55.0,35.0,-100.00,WNW,282,15.0,-999.0,46,0.00,,,-99.99,398.899994,,2013-03-02 17:32:00,
2013-03-02 12:42:00,56.0,36.0,-100.00,WNW,285,15.0,-999.0,46,0.00,,,-99.99,500.700012,,2013-03-02 17:42:00,
2013-03-02 12:52:00,56.0,36.0,-100.00,WNW,285,15.0,-999.0,46,0.00,,,-99.99,500.700012,,2013-03-02 17:52:00,
2013-03-02 13:02:00,57.0,35.0,-100.00,West,278,17.0,-999.0,42,0.00,,,-99.99,834.000000,,2013-03-02 18:02:00,
2013-03-02 13:12:00,58.0,34.0,-100.00,West,279,19.0,-999.0,40,0.00,,,-99.99,867.000000,,2013-03-02 18:12:00,
2013-03-02 13:22:00,58.0,34.0,-100.00,West,279,19.0,-999.0,40,0.00,,,-99.99,867.000000,,2013-03-02 18:22:00,
2013-03-02 13:32:00,58.0,32.0,-100.00,West,279,17.0,-999.0,36,0.00,,,-99.99,741.000000,,2013-03-02 18:32:00,
2013-03-02 13:42:00,57.0,30.0,-100.00,West,275,20.0,-999.0,34,0.00,,,-99.99,863.000000,,2013-03-02 18:42:00,
2013-03-02 13:52:00,57.0,30.0,-100.00,West,275,20.0,-999.0,34,0.00,,,-99.99,863.000000,,2013-03-02 18:52:00,
2013-03-02 14:01:00,58.0,31.0,-100.00,West,281,17.0,-999.0,35,0.00,,,-99.99,797.000000,,2013-03-02 19:01:00,
2013-03-02 14:12:00,58.0,30.0,-100.00,WNW,287,19.0,-999.0,34,0.00,,,-99.99,831.000000,,2013-03-02 19:12:00,
2013-03-02 14:22:00,58.0,30.0,-100.00,WNW,287,19.0,-999.0,34,0.00,,,-99.99,831.000000,,2013-03-02 19:22:00,
2013-03-02 14:32:00,57.0,29.0,-100.00,WNW,287,20.0,-999.0,33,0.00,,,-99.99,797.000000,,2013-03-02 19:32:00,
2013-03-02 14:42:00,57.0,30.0,-100.00,WNW,285,19.0,-999.0,35,0.00,,,-99.99,789.000000,,2013-03-02 19:42:00,
2013-03-02 14:52:00,57.0,30.0,-100.00,WNW,285,19.0,-999.0,35,0.00,,,-99.99,789.000000,,2013-03-02 19:52:00,
2013-03-02 15:01:00,57.0,30.0,-100.00,West,280,19.0,-999.0,35,0.00,,,-99.99,744.000000,,2013-03-02 20:01:00,
2013-03-02 15:11:00,57.0,30.0,-100.00,West,279,18.0,-999.0,36,0.00,,,-99.99,726.000000,,2013-03-02 20:11:00,
2013-03-02 15:22:00,57.0,30.0,-100.00,West,279,18.0,-999.0,36,0.00,,,-99.99,726.000000,,2013-03-02 20:22:00,
2013-03-02 15:32:00,57.0,31.0,-100.00,WNW,287,19.0,-999.0,36,0.00,,,-99.99,688.200012,,2013-03-02 20:32:00,
2013-03-02 15:42:00,57.0,31.0,-100.00,WNW,283,19.0,-999.0,37,0.00,,,-99.99,643.900024,,2013-03-02 20:42:00,
2013-03-02 15:53:00,57.0,31.0,-100.00,WNW,283,19.0,-999.0,37,0.00,,,-99.99,643.900024,,2013-03-02 20:53:00,
2013-03-02 16:02:00,57.0,30.0,-100.00,WNW,288,18.0,-999.0,36,0.00,,,-99.99,603.299988,,2013-03-02 21:02:00,
2013-03-02 16:11:00,56.0,31.0,-100.00,WNW,283,18.0,-999.0,37,0.00,,,-99.99,559.000000,,2013-03-02 21:11:00,
2013-03-02 16:22:00,56.0,31.0,-100.00,WNW,283,18.0,-999.0,37,0.00,,,-99.99,559.000000,,2013-03-02 21:22:00,
2013-03-02 16:32:00,56.0,32.0,-100.00,WNW,284,18.0,-999.0,39,0.00,,,-99.99,511.200012,,2013-03-02 21:32:00,
2013-03-02 16:42:00,56.0,32.0,-100.00,WNW,282,18.0,-999.0,40,0.00,,,-99.99,463.700012,,2013-03-02 21:42:00,
2013-03-02 16:52:00,56.0,32.0,-100.00,WNW,282,18.0,-999.0,40,0.00,,,-99.99,463.700012,,2013-03-02 21:52:00,
2013-03-02 17:02:00,55.0,31.0,-100.00,WNW,290,19.0,-999.0,39,0.00,,,-99.99,407.399994,,2013-03-02 22:02:00,
2013-03-02 17:11:00,55.0,32.0,-100.00,WNW,288,19.0,-999.0,41,0.00,,,-99.99,345.899994,,2013-03-02 22:11:00,
2013-03-02 17:22:00,55.0,32.0,-100.00,WNW,288,19.0,-999.0,41,0.00,,,-99.99,345.899994,,2013-03-02 22:22:00,
2013-03-02 17:32:00,54.0,32.0,-100.00,WNW,284,19.0,-999.0,43,0.00,,,-99.99,288.299988,,2013-03-02 22:32:00,
2013-03-02 17:42:00,54.0,33.0,-100.00,WNW,291,20.0,-999.0,44,0.00,,,-99.99,236.500000,,2013-03-02 22:42:00,
2013-03-02 17:52:00,54.0,33.0,-100.00,WNW,291,20.0,-999.0,44,0.00,,,-99.99,236.500000,,2013-03-02 22:52:00,
2013-03-02 18:01:00,53.0,33.0,-100.00,West,279,19.0,-999.0,44,0.00,,,-99.99,177.399994,,2013-03-02 23:01:00,
2013-03-02 18:11:00,53.0,33.0,-100.00,WNW,284,16.0,-999.0,46,0.00,,,-99.99,121.000000,,2013-03-02 23:11:00,
2013-03-02 18:21:00,53.0,33.0,-100.00,WNW,284,16.0,-999.0,46,0.00,,,-99.99,121.000000,,2013-03-02 23:21:00,
2013-03-02 18:32:00,52.0,33.0,-100.00,WNW,293,16.0,-999.0,47,0.00,,,-99.99,58.900002,,2013-03-02 23:32:00,
2013-03-02 18:42:00,52.0,33.0,-100.00,WNW,290,14.0,-999.0,49,0.00,,,-99.99,8.600000,,2013-03-02 23:42:00,
2013-03-02 18:52:00,52.0,33.0,-100.00,WNW,290,14.0,-999.0,49,0.00,,,-99.99,8.600000,,2013-03-02 23:52:00,
2013-03-02 19:02:00,51.0,34.0,-100.00,WNW,290,13.0,-999.0,51,0.00,,,-99.99,1.300000,,2013-03-03 00:02:00,
2013-03-02 19:11:00,51.0,34.0,-100.00,WNW,286,14.0,-999.0,51,0.00,,,-99.99,0.000000,,2013-03-03 00:11:00,
2013-03-02 19:22:00,51.0,34.0,-100.00,WNW,286,14.0,-999.0,51,0.00,,,-99.99,0.000000,,2013-03-03 00:22:00,
2013-03-02 19:32:00,51.0,35.0,-100.00,WNW,283,12.0,-999.0,54,0.00,,,-99.99,0.000000,,2013-03-03 00:32:00,
2013-03-02 19:42:00,51.0,35.0,-100.00,WNW,284,11.0,-999.0,54,0.00,,,-99.99,0.000000,,2013-03-03 00:42:00,
2013-03-02 19:52:00,51.0,35.0,-100.00,WNW,284,11.0,-999.0,54,0.00,,,-99.99,0.000000,,2013-03-03 00:52:00,
2013-03-02 20:01:00,51.0,34.0,-100.00,West,279,11.0,-999.0,52,0.00,,,-99.99,0.000000,,2013-03-03 01:01:00,
2013-03-02 20:11:00,51.0,34.0,-100.00,West,278,11.0,-999.0,52,0.00,,,-99.99,0.000000,,2013-03-03 01:11:00,
2013-03-02 20:21:00,51.0,34.0,-100.00,West,278,11.0,-999.0,52,0.00,,,-99.99,0.000000,,2013-03-03 01:21:00,
2013-03-02 20:32:00,51.0,34.0,-100.00,West,280,13.0,-999.0,52,0.00,,,-99.99,0.000000,,2013-03-03 01:32:00,
2013-03-02 20:42:00,51.0,34.0,-100.00,West,279,11.0,-999.0,52,0.00,,,-99.99,0.000000,,2013-03-03 01:42:00,
2013-03-02 20:52:00,51.0,34.0,-100.00,West,279,11.0,-999.0,52,0.00,,,-99.99,0.000000,,2013-03-03 01:52:00,
2013-03-02 21:01:00,50.0,34.0,-100.00,WNW,286,9.0,-999.0,53,0.00,,,-99.99,0.000000,,2013-03-03 02:01:00,
2013-03-02 21:11:00,50.0,35.0,-100.00,WNW,295,7.0,-999.0,54,0.00,,,-99.99,0.000000,,2013-03-03 02:11:00,
2013-03-02 21:21:00,50.0,35.0,-100.00,WNW,295,7.0,-999.0,54,0.00,,,-99.99,0.000000,,2013-03-03 02:21:00,
2013-03-02 21:32:00,50.0,35.0,-100.00,WNW,296,8.0,-999.0,55,0.00,,,-99.99,0.000000,,2013-03-03 02:32:00,
2013-03-02 21:42:00,49.0,34.0,-100.00,NW,316,7.0,-999.0,55,0.00,,,-99.99,0.000000,,2013-03-03 02:42:00,
2013-03-02 21:52:00,49.0,34.0,-100.00,NW,316,7.0,-999.0,55,0.00,,,-99.99,0.000000,,2013-03-03 02:52:00,
2013-03-02 22:01:00,47.0,34.0,-100.00,NNW,327,7.0,-999.0,59,0.00,,,-99.99,0.000000,,2013-03-03 03:01:00,
2013-03-02 22:11:00,46.0,34.0,-100.00,NNW,336,5.0,-999.0,62,0.00,,,-99.99,0.000000,,2013-03-03 03:11:00,
2013-03-02 22:21:00,46.0,34.0,-100.00,NNW,336,5.0,-999.0,62,0.00,,,-99.99,0.000000,,2013-03-03 03:21:00,
2013-03-02 22:32:00,46.0,34.0,-100.00,NNW,328,4.0,-999.0,64,0.00,,,-99.99,0.000000,,2013-03-03 03:32:00,
2013-03-02 22:42:00,46.0,34.0,-100.00,NNW,327,4.0,-999.0,63,0.00,,,-99.99,0.000000,,2013-03-03 03:42:00,
2013-03-02 22:52:00,46.0,34.0,-100.00,NNW,327,4.0,-999.0,63,0.00,,,-99.99,0.000000,,2013-03-03 03:52:00,
2013-03-02 23:01:00,45.0,34.0,-100.00,NNW,332,4.0,-999.0,63,0.00,,,-99.99,0.000000,,2013-03-03 04:01:00,
2013-03-02 23:11:00,45.0,34.0,-100.00,NNW,327,4.0,-999.0,63,0.00,,,-99.99,0.000000,,2013-03-03 04:11:00,
2013-03-02 23:21:00,45.0,34.0,-100.00,NNW,327,4.0,-999.0,63,0.00,,,-99.99,0.000000,,2013-03-03 04:21:00,
2013-03-02 23:32:00,44.0,33.0,-100.00,North,351,8.0,-999.0,63,0.00,,,-99.99,0.000000,,2013-03-03 04:32:00,
2013-03-02 23:42:00,44.0,32.0,-100.00,North,355,8.0,-999.0,62,0.00,,,-99.99,0.000000,,2013-03-03 04:42:00,
2013-03-02 23:52:00,44.0,32.0,-100.00,North,355,8.0,-999.0,62,0.00,,,-99.99,0.000000,,2013-03-03 04:52:00,